Home > Weather > Muktsar > Past weeks

Flag for India Weather for the Past 2 Weeks in Muktsar, Punjab, India

Now
61 °F

Haze.


Feels Like: 61 °F
Forecast: 48 / 73 °F
Wind: 3 mph from West

Location: Lahore Airport

Current Time: Feb 14, 2016 at 9:06:20 PM

Latest Report: Feb 14, 2016 at 8:25 PM


Visibility: 2 mi

Pressure: 30.07 "Hg

Humidity: 45%

Dew point: 39 °F

Location of MuktsarLocation

Historic Weather in Muktsar — Graph

°F

Muktsar Temperature Yesterday

Maximum temperature yesterday: 68 °F (at 3:25 PM)
Minimum temperature yesterday: 46 °F (at 7:30 AM)
Average temperature yesterday: 58 °F

High & Low Weather Summary for the Past Weeks

 TemperatureHumidityPressure
High75 °F (Feb 5, 2:25 PM)100% (Feb 10, 5:25 AM)30.15 "Hg (Feb 10, 5:25 AM)
Low45 °F (Feb 1, 7:30 AM)23% (Feb 14, 4:25 PM)29.65 "Hg (Feb 11, 5:25 AM)
Average60 °F62%30.01 "Hg
* Reported Jan 30 8:00 PM — Feb 14 7:55 PM, Muktsar, Weather by CustomWeather, © 2016

Note: Actual official high and low records may vary slightly from our data, if they occured in-between our weather recording intervals... More about our weather records

Advertising

Muktsar Weather History for the Previous 24 Hours

 ConditionsComfort  
Time TempWeatherWind HumidityBarometerVisibility
7:55 PM
Sun, Feb 14
64 °FHaze.5 mph40%30.07 "Hg2 mi
7:25 PM66 °FHaze.5 mph37%30.07 "Hg2 mi
6:55 PM68 °FHaze.6 mph33%30.04 "Hg3 mi
6:25 PM68 °FHaze.6 mph33%30.04 "Hg3 mi
5:55 PM70 °FHaze.7 mph29%30.04 "Hg3 mi
5:25 PM70 °FHaze.7 mph29%30.04 "Hg3 mi
4:55 PM72 °FClear.7 mph23%30.04 "Hg4 mi
4:25 PM72 °FClear.8 mph23%30.04 "Hg4 mi
3:55 PM72 °FClear.7 mph25%30.04 "Hg4 mi
3:25 PM72 °FClear.6 mph25%30.04 "Hg4 mi
2:55 PM68 °FClear.6 mph28%30.04 "Hg4 mi
1:55 PM68 °FClear.6 mph28%30.07 "Hg4 mi
1:25 PM66 °FClear.6 mph30%30.09 "Hg4 mi
12:55 PM64 °FClear.6 mph34%30.09 "Hg4 mi
12:25 PM64 °FHaze.6 mph34%30.12 "Hg3 mi
11:55 AM61 °FHaze.5 mph42%30.12 "Hg2 mi
11:25 AM59 °FHaze.5 mph48%30.12 "Hg2 mi
10:55 AM57 °FClear.6 mph55%30.12 "Hg2 mi
10:25 AM55 °FClear.7 mph59%30.12 "Hg1 mi
9:55 AM54 °FClear.7 mph63%30.12 "Hg1 mi
9:25 AM52 °FClear.6 mph72%30.12 "Hg1 mi
8:55 AM50 °FFog.5 mph76%30.12 "Hg1 mi
8:25 AM48 °FFog.3 mph82%30.09 "Hg1 mi
8:00 AM46 °FFog.No wind82%30.09 "Hg1 mi
7:30 AM46 °FFog.No wind82%30.07 "Hg1 mi
6:55 AM48 °FFog.No wind82%30.07 "Hg1 mi
6:25 AM48 °FFog.No wind82%30.07 "Hg2 mi
5:55 AM50 °FClear.No wind76%30.07 "Hg2 mi
5:25 AM50 °FClear.No wind76%30.04 "Hg2 mi
4:55 AM50 °FClear.No wind76%30.07 "Hg2 mi
4:25 AM50 °FClear.No wind76%30.07 "Hg2 mi
4:00 AM52 °FClear.No wind77%30.07 "Hg2 mi
3:30 AM52 °FClear.No wind77%30.07 "Hg2 mi
3:00 AM54 °FClear.No wind67%30.07 "Hg2 mi
2:30 AM54 °FClear.No wind67%30.07 "Hg2 mi
2:00 AM54 °FClear.3 mph72%30.07 "Hg2 mi
1:30 AM54 °FClear.No wind72%30.07 "Hg2 mi
1:00 AM55 °FClear.No wind67%30.07 "Hg2 mi
12:30 AM55 °FClear.5 mph67%30.09 "Hg2 mi
12:00 AM57 °FClear.5 mph59%30.09 "Hg2 mi
11:30 PM
Sat, Feb 13
57 °FClear.5 mph59%30.09 "Hg2 mi
11:00 PM57 °FClear.6 mph59%30.09 "Hg2 mi
10:30 PM57 °FClear.6 mph59%30.09 "Hg2 mi
9:55 PM59 °FClear.3 mph55%30.07 "Hg2 mi
9:30 PM59 °FClear.5 mph55%30.07 "Hg2 mi
Weather by CustomWeather, © 2016

See weather overviewHow to use our weather pages